Location: Lancaster
(34.6980°N, 118.1360°W)
Time: 18:45:02
(UTC-08:00)

N. Korean satellite - Pass Details

Date: 18 November 2017
Orbit: 460 x 515 km, 97.2° (Epoch: 17 November)

Event Time Altitude Azimuth Distance (km) Brightness Sun altitude
Rises 18:53:27 0° 207° (SSW) 2,476 10.6 -26.1°
Reaches altitude 10° 18:56:18 10° 235° (SW) 1,613 10.0 -26.7°
Maximum altitude 18:58:07 14° 267° (W) 1,410 9.8 -27.1°
Drops below altitude 10° 18:59:58 10° 298° (WNW) 1,631 9.9 -27.5°
Sets 19:02:54 0° 326° (NW) 2,526 10.6 -28.1°
